Weather History for Ogallala, NE

Change the Weather History Date:

Wednesday, February 13, 2013

  Actual Average Record
Temperature  
Mean Temperature 34 °F -  
Max Temperature 51 °F 43 °F 77 °F (1962)
Min Temperature 18 °F 16 °F -7 °F (1986)
Degree Days  
Heating Degree Days 30    
Moisture  
Dew Point 23 °F    
Average Humidity 62    
Maximum Humidity 89    
Minimum Humidity 33    
Precipitation  
Precipitation 0.00 in - - ()
Sea Level Pressure  
Sea Level Pressure 29.90 in    
Wind  
Wind Speed 11 mph (WNW)    
Max Wind Speed 28 mph    
Max Gust Speed 36 mph    
Visibility 10 miles    
Events Rain    
Averages and records for this station are not official NWS values.
T = Trace of Precipitation, MM = Missing Value Source: NWS Daily Summary

Daily Weather History Graph

Daily Weather History Graph

Search for Another Location

Airport:

Trip Planner

Search our weather history database for the weather conditions in past years. The results will help you decide how hot, cold, wet, or windy it might be!

Date:

Astronomy

Feb. 13, 2013 Rise Set
Actual Time 6:43 AM MST 5:19 PM MST
Civil Twilight 6:15 AM MST 5:47 PM MST
Nautical Twilight 5:43 AM MST 6:19 PM MST
Astronomical Twilight 5:11 AM MST 6:51 PM MST
Moon 8:11 AM MST (2/13) 9:26 PM MST (2/13)
Length of Visible Light 11h 32m
Length of Day
10h 35m
Waxing Crescent, 14% of the Moon is Illuminated
Feb 13
Waxing Crescent
Feb 17
First Quarter
Feb 25
Full
Mar 4
Last Quarter
Mar 11
New

Hourly Weather History & Observations

Time (MST) Temp. Windchill Dew Point Humidity Pressure Visibility Wind Dir Wind Speed Gust Speed Precip Events Conditions
12:15 AM 26.6 °F 19.1 °F 16.7 °F 66% 29.97 in 10.0 mi WSW 6.9 mph - N/A   Clear
12:35 AM 23.9 °F 15.8 °F 15.8 °F 71% 29.97 in 10.0 mi WSW 6.9 mph - N/A   Clear
12:55 AM 23.0 °F - 15.4 °F 73% 29.96 in 10.0 mi Calm Calm - N/A   Clear
1:15 AM 24.6 °F 20.3 °F 15.6 °F 69% 29.95 in 10.0 mi WSW 3.5 mph - N/A   Clear
1:35 AM 24.6 °F 20.3 °F 15.8 °F 69% 29.95 in 10.0 mi West 3.5 mph - N/A   Clear
1:55 AM 25.3 °F 16.7 °F 16.2 °F 68% 29.95 in 10.0 mi WSW 8.1 mph - N/A   Clear
2:15 AM 27.5 °F 23.6 °F 16.7 °F 64% 29.95 in 10.0 mi WSW 3.5 mph - N/A   Clear
2:35 AM 27.0 °F 17.3 °F 18.3 °F 70% 29.93 in 10.0 mi West 10.4 mph - N/A   Mostly Cloudy
2:55 AM 26.4 °F 16.6 °F 18.5 °F 72% 29.93 in 10.0 mi WSW 10.4 mph - N/A   Mostly Cloudy
3:15 AM 26.4 °F 17.3 °F 18.9 °F 73% 29.92 in 10.0 mi West 9.2 mph - N/A   Scattered Clouds
3:35 AM 25.2 °F 20.9 °F 18.3 °F 75% 29.92 in 10.0 mi West 3.5 mph - N/A   Clear
3:55 AM 24.8 °F 15.3 °F 18.1 °F 76% 29.91 in 10.0 mi West 9.2 mph - N/A   Clear
4:15 AM 24.3 °F 15.4 °F 17.6 °F 76% 29.91 in 10.0 mi West 8.1 mph - N/A   Clear
4:35 AM 23.2 °F 13.3 °F 17.2 °F 78% 29.91 in 10.0 mi West 9.2 mph - N/A   Clear
4:55 AM 23.0 °F 13.1 °F 16.7 °F 77% 29.91 in 10.0 mi West 9.2 mph - N/A   Clear
5:15 AM 21.7 °F 10.8 °F 16.0 °F 78% 29.91 in 10.0 mi West 10.4 mph - N/A   Clear
5:35 AM 21.7 °F 10.2 °F 16.2 °F 79% 29.90 in 10.0 mi West 11.5 mph - N/A   Clear
5:55 AM 21.2 °F 10.9 °F 15.6 °F 79% 29.90 in 10.0 mi West 9.2 mph - N/A   Clear
6:15 AM 18.5 °F 9.3 °F 14.0 °F 83% 29.90 in 10.0 mi WSW 6.9 mph - N/A   Clear
6:35 AM 18.9 °F 7.2 °F 14.4 °F 83% 29.90 in 10.0 mi WSW 10.4 mph - N/A   Clear
6:55 AM 19.6 °F 10.6 °F 14.7 °F 81% 29.90 in 10.0 mi WSW 6.9 mph - N/A   Clear
7:15 AM 23.0 °F 15.8 °F 16.5 °F 76% 29.90 in 10.0 mi WSW 5.8 mph - N/A   Clear
7:35 AM 25.9 °F 20.3 °F 17.6 °F 71% 29.90 in 10.0 mi WSW 4.6 mph - N/A   Clear
7:55 AM 27.0 °F 20.5 °F 19.2 °F 73% 29.89 in 10.0 mi WSW 5.8 mph - N/A   Clear
8:15 AM 29.1 °F 21.3 °F 20.3 °F 70% 29.89 in 10.0 mi WSW 8.1 mph - N/A   Clear
8:35 AM 34.9 °F 23.3 °F 22.1 °F 60% 29.89 in 10.0 mi WNW 21.9 mph 25.3 mph N/A   Clear
8:55 AM 36.7 °F 24.4 °F 21.2 °F 54% 29.88 in 10.0 mi WNW 27.6 mph 33.4 mph N/A   Clear
9:15 AM 36.5 °F 24.9 °F 21.0 °F 54% 29.88 in 10.0 mi WNW 24.2 mph 35.7 mph N/A   Clear
9:35 AM 39.0 °F 28.8 °F 22.1 °F 51% 29.88 in 10.0 mi WNW 21.9 mph 26.5 mph N/A   Clear
9:55 AM 40.6 °F 30.4 °F 22.6 °F 49% 29.88 in 10.0 mi WNW 24.2 mph 29.9 mph N/A   Clear
10:15 AM 42.3 °F 33.1 °F 23.9 °F 48% 29.89 in 10.0 mi WNW 21.9 mph 27.6 mph N/A   Clear
10:35 AM 43.5 °F 35.8 °F 23.7 °F 46% 29.89 in 10.0 mi WNW 17.3 mph 27.6 mph N/A   Clear
10:55 AM 44.8 °F 36.6 °F 24.3 °F 45% 29.88 in 10.0 mi WNW 20.7 mph 28.8 mph N/A   Clear
11:15 AM 46.4 °F 38.5 °F 24.6 °F 42% 29.88 in 10.0 mi WNW 21.9 mph 28.8 mph N/A   Scattered Clouds
11:35 AM 46.2 °F 38.5 °F 24.6 °F 43% 29.88 in 10.0 mi WNW 20.7 mph 31.1 mph N/A   Mostly Cloudy
11:55 AM 46.9 °F - 23.5 °F 40% 29.87 in 10.0 mi WNW 21.9 mph 29.9 mph N/A   Overcast
12:15 PM 47.3 °F - 23.5 °F 39% 29.86 in 10.0 mi WNW 21.9 mph 27.6 mph N/A   Mostly Cloudy
12:35 PM 49.5 °F - 23.4 °F 36% 29.85 in 10.0 mi WNW 23.0 mph 28.8 mph N/A   Scattered Clouds
12:55 PM 49.5 °F - 23.2 °F 36% 29.84 in 10.0 mi WNW 20.7 mph 26.5 mph N/A   Scattered Clouds
1:15 PM 49.5 °F - 25.0 °F 38% 29.84 in 10.0 mi West 17.3 mph - N/A   Clear
1:35 PM 50.7 °F - 25.3 °F 37% 29.84 in 10.0 mi WNW 16.1 mph - N/A   Clear
1:55 PM 50.9 °F - 25.5 °F 37% 29.83 in 10.0 mi WNW 13.8 mph - N/A   Clear
2:15 PM 51.6 °F - 24.1 °F 34% 29.83 in 10.0 mi WNW 18.4 mph 23.0 mph N/A   Clear
2:35 PM 51.6 °F - 23.0 °F 33% 29.83 in 10.0 mi NW 16.1 mph 24.2 mph N/A   Clear
2:55 PM 51.3 °F - 23.2 °F 33% 29.83 in 10.0 mi NW 17.3 mph - N/A   Clear
3:15 PM 51.3 °F - 23.9 °F 34% 29.84 in 10.0 mi NW 10.4 mph - N/A   Scattered Clouds
3:35 PM 50.2 °F - 24.3 °F 36% 29.83 in 10.0 mi WNW 8.1 mph - N/A   Scattered Clouds
3:55 PM 50.5 °F - 23.2 °F 34% 29.83 in 10.0 mi WNW 6.9 mph - N/A   Clear
4:15 PM 48.4 °F - 25.5 °F 41% 29.83 in 10.0 mi West 5.8 mph - N/A   Mostly Cloudy
4:35 PM 47.8 °F - 28.2 °F 47% 29.84 in 10.0 mi WNW 4.6 mph - N/A   Overcast
4:55 PM 48.0 °F - 25.2 °F 41% 29.84 in 10.0 mi WNW 8.1 mph - N/A   Overcast
5:15 PM 44.2 °F 38.8 °F 27.0 °F 51% 29.83 in 10.0 mi West 10.4 mph - N/A   Mostly Cloudy
5:35 PM 42.3 °F 36.8 °F 26.8 °F 54% 29.84 in 10.0 mi WNW 9.2 mph - N/A   Mostly Cloudy
5:55 PM 40.5 °F 33.6 °F 26.6 °F 58% 29.85 in 10.0 mi WNW 11.5 mph - N/A   Scattered Clouds
6:15 PM 41.2 °F 33.4 °F 26.2 °F 55% 29.85 in 10.0 mi WNW 15.0 mph - N/A   Clear
6:35 PM 41.9 °F 34.6 °F 25.5 °F 52% 29.87 in 10.0 mi NW 13.8 mph - N/A   Clear
6:55 PM 39.2 °F 33.0 °F 26.6 °F 61% 29.88 in 10.0 mi NNW 9.2 mph - N/A   Clear
7:15 PM 36.9 °F 30.7 °F 27.1 °F 68% 29.88 in 10.0 mi NW 8.1 mph - N/A   Clear
7:35 PM 36.1 °F 28.7 °F 27.7 °F 71% 29.90 in 10.0 mi NW 10.4 mph - N/A   Clear
7:55 PM 39.2 °F 30.2 °F 29.1 °F 67% 29.91 in 10.0 mi NNW 17.3 mph 21.9 mph N/A   Clear
8:15 PM 38.5 °F 27.5 °F 31.8 °F 77% 29.91 in 10.0 mi NNW 24.2 mph 29.9 mph N/A   Clear
8:35 PM 38.3 °F 28.1 °F 32.9 °F 81% 29.91 in 10.0 mi NNW 20.7 mph 34.5 mph N/A Rain Light Rain
8:55 PM 36.9 °F 28.2 °F 32.0 °F 83% 29.91 in 10.0 mi NW 13.8 mph 18.4 mph N/A   Scattered Clouds
9:15 PM 36.5 °F 28.7 °F 32.0 °F 84% 29.91 in 10.0 mi NW 11.5 mph - N/A   Clear
9:35 PM 35.8 °F 27.8 °F 31.5 °F 84% 29.93 in 10.0 mi NW 11.5 mph - N/A   Clear
9:55 PM 34.9 °F 26.2 °F 30.9 °F 85% 29.94 in 10.0 mi NNW 12.7 mph - N/A   Clear
10:15 PM 34.7 °F 25.9 °F 31.1 °F 87% 29.95 in 10.0 mi NW 12.7 mph - N/A   Clear
10:35 PM 34.3 °F 26.5 °F 30.2 °F 85% 29.96 in 10.0 mi West 10.4 mph - N/A   Clear
10:55 PM 33.8 °F 24.3 °F 30.0 °F 86% 29.97 in 10.0 mi WNW 13.8 mph - N/A   Clear
11:15 PM 34.7 °F 26.4 °F 29.3 °F 81% 29.99 in 10.0 mi WNW 11.5 mph - N/A   Clear
11:35 PM 30.4 °F 22.2 °F 27.5 °F 89% 29.98 in 10.0 mi WNW 9.2 mph - N/A   Clear
11:55 PM 32.7 °F 23.4 °F 28.6 °F 85% 29.99 in 10.0 mi NW 12.7 mph - N/A   Clear